Terug naar catalogus

SKYNET 1

ActiefMilitairGEO
NORAD 4250·PAYLOAD·🇬🇧 United Kingdom

Gelanceerd Nov 22, 1969 vanaf Cape Canaveral Space Force Station

Loading…

TLE

VersSource: Space-Track

Epoch: Sep 14, 2026, 13:18 UTC

1  4250U 69101A   26257.55443080 -.00000099  00000-0  00000+0 0  9997
2  4250   0.6641  80.7056 0026090 160.5681 207.3598  1.00267857135414

Volg SKYNET 1 in realtime met AllMySat

Download on the App Store